Change the Weather History Date:

Friday, March 7, 2014

  Actual Average Record
Temperature  
Mean Temperature 27 °F -  
Max Temperature 44 °F 42 °F 73 °F (1987)
Min Temperature 10 °F 24 °F 2 °F (1960)
Degree Days  
Heating Degree Days 38    
Moisture  
Dew Point 20 °F    
Average Humidity 74    
Maximum Humidity 93    
Minimum Humidity 43    
Precipitation  
Precipitation 0.00 in - - ()
Sea Level Pressure  
Sea Level Pressure 30.01 in    
Wind  
Wind Speed 2 mph (SSE)    
Max Wind Speed 8 mph    
Max Gust Speed -    
Visibility 9 miles    
Events      
Averages and records for this station are not official NWS values.
T = Trace of Precipitation, MM = Missing Value Source: NWS Daily Summary

Daily Weather History Graph

Daily Weather History Graph

Search for Another Location

Airport or City:

Trip Planner

Search our weather history database for the weather conditions in past years. The results will help you decide how hot, cold, wet, or windy it might be!

Date:

Astronomy

Mar. 07, 2014 Rise Set
Actual Time 7:08 AM EST 6:41 PM EST
Civil Twilight 6:40 AM EST 7:08 PM EST
Nautical Twilight 6:08 AM EST 7:40 PM EST
Astronomical Twilight 5:36 AM EST 8:12 PM EST
Moon 10:56 AM EST (3/7) 12:49 AM EST (3/7)
Length of Visible Light 12h 27m
Length of Day
11h 32m
Waxing Crescent, 42% of the Moon is Illuminated
Mar 7
Waxing Crescent
Mar 8
First Quarter
Mar 16
Full
Mar 23
Last Quarter
Mar 30
New

Hourly Weather History & Observations

Time (EST) Temp. Windchill Dew Point Humidity Pressure Visibility Wind Dir Wind Speed Gust Speed Precip Events Conditions
12:20 AM 17.6 °F 12.3 °F 12.2 °F 79% 30.13 in 10.0 mi SE 3.5 mph - N/A   Clear
12:35 AM 17.6 °F 12.3 °F 12.2 °F 79% 30.12 in 10.0 mi ESE 3.5 mph - N/A   Clear
12:55 AM 17.6 °F 10.7 °F 12.2 °F 79% 30.11 in 10.0 mi ESE 4.6 mph - N/A   Clear
1:15 AM 17.6 °F 12.3 °F 12.2 °F 79% 30.10 in 10.0 mi ESE 3.5 mph - N/A   Clear
1:35 AM 15.8 °F 10.2 °F 12.2 °F 86% 30.11 in 10.0 mi East 3.5 mph - N/A   Clear
1:55 AM 15.8 °F 10.2 °F 12.2 °F 86% 30.10 in 10.0 mi ESE 3.5 mph - N/A   Clear
2:15 AM 15.8 °F - 12.2 °F 86% 30.09 in 10.0 mi Calm Calm - N/A   Clear
2:35 AM 15.8 °F - 12.2 °F 86% 30.08 in 10.0 mi Calm Calm - N/A   Clear
2:55 AM 14.0 °F 8.2 °F 10.4 °F 86% 30.08 in 10.0 mi ESE 3.5 mph - N/A   Clear
3:15 AM 14.0 °F - 12.2 °F 93% 30.07 in 10.0 mi Calm Calm - N/A   Clear
3:35 AM 14.0 °F - 12.2 °F 93% 30.07 in 10.0 mi Calm Calm - N/A   Clear
3:55 AM 14.0 °F - 12.2 °F 93% 30.07 in 10.0 mi Calm Calm - N/A   Clear
4:15 AM 12.2 °F - 10.4 °F 92% 30.06 in 7.0 mi Calm Calm - N/A   Clear
4:35 AM 12.2 °F - 10.4 °F 92% 30.07 in 7.0 mi Calm Calm - N/A   Clear
5:00 AM 12.2 °F - 10.4 °F 92% 30.06 in 5.0 mi Calm Calm - N/A   Clear
5:15 AM 10.4 °F - 8.6 °F 92% 30.06 in 5.0 mi Calm Calm - N/A   Clear
5:35 AM 10.4 °F - 8.6 °F 92% 30.05 in 7.0 mi Calm Calm - N/A   Clear
5:55 AM 10.4 °F 4.0 °F 8.6 °F 92% 30.05 in 7.0 mi ESE 3.5 mph - N/A   Clear
6:15 AM 10.4 °F - 8.6 °F 92% 30.05 in 7.0 mi Calm Calm - N/A   Clear
6:35 AM 12.2 °F - 10.4 °F 92% 30.05 in 7.0 mi Calm Calm - N/A   Clear
6:55 AM 12.2 °F 6.1 °F 8.6 °F 85% 30.04 in 7.0 mi ESE 3.5 mph - N/A   Clear
7:15 AM 10.4 °F 4.0 °F 8.6 °F 92% 30.04 in 5.0 mi ESE 3.5 mph - N/A   Clear
7:35 AM 10.4 °F - 8.6 °F 92% 30.05 in 5.0 mi Calm Calm - N/A   Clear
7:55 AM 12.2 °F 6.1 °F 10.4 °F 92% 30.04 in 5.0 mi SE 3.5 mph - N/A   Clear
8:15 AM 14.0 °F 8.2 °F 12.2 °F 93% 30.04 in 5.0 mi ESE 3.5 mph - N/A   Clear
8:35 AM 17.6 °F 12.3 °F 14.0 °F 86% 30.05 in 7.0 mi ESE 3.5 mph - N/A   Clear
8:55 AM 19.4 °F 14.3 °F 15.8 °F 86% 30.05 in 7.0 mi ESE 3.5 mph - N/A   Clear
9:15 AM 21.2 °F 13.6 °F 17.6 °F 86% 30.05 in 7.0 mi ESE 5.8 mph - N/A   Clear
9:35 AM 26.6 °F 22.6 °F 17.6 °F 69% 30.05 in 10.0 mi SSE 3.5 mph - N/A   Clear
9:55 AM 26.6 °F 22.6 °F 19.4 °F 74% 30.05 in 10.0 mi SE 3.5 mph - N/A   Clear
10:15 AM 28.4 °F - 19.4 °F 69% 30.06 in 10.0 mi Calm Calm - N/A   Clear
10:35 AM 32.0 °F 27.5 °F 21.2 °F 64% 30.04 in 7.0 mi South 4.6 mph - N/A   Clear
10:55 AM 32.0 °F 27.5 °F 21.2 °F 64% 30.05 in 7.0 mi SSE 4.6 mph - N/A   Clear
11:15 AM 33.8 °F 29.6 °F 23.0 °F 65% 30.05 in 7.0 mi South 4.6 mph - N/A   Clear
11:35 AM 33.8 °F - 23.0 °F 65% 30.05 in 7.0 mi Calm Calm - N/A   Clear
11:55 AM 35.6 °F 31.7 °F 23.0 °F 60% 30.03 in 10.0 mi South 4.6 mph - N/A   Clear
12:15 PM 37.4 °F 33.8 °F 23.0 °F 56% 30.02 in 10.0 mi SSW 4.6 mph - N/A   Clear
12:35 PM 39.2 °F - 24.8 °F 56% 30.02 in 10.0 mi Calm Calm - N/A   Clear
12:55 PM 41.0 °F 37.1 °F 24.8 °F 53% 30.01 in 10.0 mi South 5.8 mph - N/A   Clear
1:15 PM 41.0 °F - 24.8 °F 53% 29.99 in 10.0 mi Calm Calm - N/A   Clear
1:35 PM 41.0 °F - 24.8 °F 53% 30.00 in 10.0 mi Calm Calm - N/A   Clear
1:55 PM 42.8 °F 40.1 °F 24.8 °F 49% 29.98 in 10.0 mi SSW 4.6 mph - N/A   Clear
2:15 PM 42.8 °F 40.1 °F 24.8 °F 49% 29.98 in 10.0 mi WSW 4.6 mph - N/A   Clear
2:35 PM 42.8 °F 38.0 °F 26.6 °F 53% 29.97 in 10.0 mi WSW 8.1 mph - N/A   Clear
2:55 PM 42.8 °F 39.3 °F 24.8 °F 49% 29.97 in 10.0 mi WSW 5.8 mph - N/A   Clear
3:15 PM 42.8 °F 40.1 °F 24.8 °F 49% 29.96 in 10.0 mi WSW 4.6 mph - N/A   Clear
3:35 PM 44.6 °F 41.4 °F 23.0 °F 43% 29.95 in 10.0 mi SW 5.8 mph - N/A   Clear
3:55 PM 44.6 °F 42.2 °F 23.0 °F 43% 29.94 in 10.0 mi SSW 4.6 mph - N/A   Clear
4:15 PM 44.6 °F 43.1 °F 24.8 °F 46% 29.94 in 10.0 mi SSW 3.5 mph - N/A   Clear
4:35 PM 44.6 °F 40.7 °F 26.6 °F 49% 29.93 in 10.0 mi SSW 6.9 mph - N/A   Clear
4:55 PM 44.6 °F 42.2 °F 26.6 °F 49% 29.94 in 10.0 mi South 4.6 mph - N/A   Clear
5:15 PM 44.6 °F 41.4 °F 28.4 °F 53% 29.93 in 10.0 mi SW 5.8 mph - N/A   Clear
5:35 PM 44.6 °F 42.2 °F 28.4 °F 53% 29.93 in 10.0 mi South 4.6 mph - N/A   Clear
5:55 PM 42.8 °F - 28.4 °F 57% 29.93 in 10.0 mi Calm Calm - N/A   Clear
6:15 PM 42.8 °F - 28.4 °F 57% 29.93 in 10.0 mi Calm Calm - N/A   Clear
6:35 PM 41.0 °F - 28.4 °F 61% 29.93 in 10.0 mi Calm Calm - N/A   Clear
6:55 PM 41.0 °F - 28.4 °F 61% 29.92 in 10.0 mi Calm Calm - N/A   Mostly Cloudy
7:15 PM 41.0 °F - 28.4 °F 61% 29.93 in 10.0 mi Calm Calm - N/A   Overcast
7:35 PM 37.4 °F - 28.4 °F 70% 29.94 in 10.0 mi Calm Calm - N/A   Scattered Clouds
7:55 PM 35.6 °F - 30.2 °F 81% 29.95 in 10.0 mi Calm Calm - N/A   Clear
8:15 PM 35.6 °F - 30.2 °F 81% 29.95 in 10.0 mi Calm Calm - N/A   Clear
8:35 PM 33.8 °F - 28.4 °F 81% 29.95 in 10.0 mi Calm Calm - N/A   Mostly Cloudy
8:55 PM 33.8 °F - 28.4 °F 81% 29.94 in 7.0 mi Calm Calm - N/A   Overcast
9:15 PM 33.8 °F - 30.2 °F 87% 29.94 in 7.0 mi Calm Calm - N/A   Overcast
9:35 PM 32.0 °F - 30.2 °F 93% 29.93 in 7.0 mi Calm Calm - N/A   Scattered Clouds
9:55 PM 33.8 °F - 30.2 °F 87% 29.94 in 7.0 mi Calm Calm - N/A   Clear
10:15 PM 33.8 °F - 28.4 °F 81% 29.94 in 7.0 mi Calm Calm - N/A   Clear
10:40 PM 32.0 °F - 28.4 °F 87% 29.95 in 7.0 mi Calm Calm - N/A   Mostly Cloudy
10:55 PM 32.0 °F - 28.4 °F 87% 29.95 in 7.0 mi Calm Calm - N/A   Overcast
11:15 PM 32.0 °F - 28.4 °F 87% 29.95 in 7.0 mi Calm Calm - N/A   Overcast
11:35 PM 32.0 °F - 30.2 °F 93% 29.95 in 5.0 mi Calm Calm - N/A   Scattered Clouds
11:55 PM 32.0 °F - 30.2 °F 93% 29.95 in 7.0 mi Calm Calm - N/A   Clear